Location: Veytaux
(46.4185°N, 6.9320°E)
Time: 07:49:41
(UTC+00:00)

Cosmos 1953 - Pass Details

Date: 27 May 2022
Orbit: 533 x 555 km, 82.5° (Epoch: 01 July)

Event Time Altitude Azimuth Distance (km) Brightness Sun altitude
Rises 01:15:54 0° 333° (NNW) 2,725 6.4 -18.2°
Reaches altitude 10° 01:18:52 10° 309° (NW) 1,820 5.1 -17.9°
Maximum altitude 01:21:05 15° 275° (W) 1,541 4.4 -17.8°
Enters shadow 01:21:15 15° 272° (W) 1,542 4.3 -17.7°
